• In Belarus
  • List of Countries
  • For 7 days
  • Water Temperature
  • Satellite Maps
  • Weather Map
  • Weather Widgets
  • user-avatar
    Login

    Hourly Weather Biskira

    Today, 23 October, Monday

    Time Temperature Precipitation Wind Pressure Humidity
    00:00 +24°C° 0 mm 2 mps 756 mmHg 56%
    01:00 +24°C° 0 mm 2 mps 756 mmHg 58%
    02:00 +22°C° 0 mm 3 mps 756 mmHg 60%
    03:00 +22°C° 0 mm 3 mps 756 mmHg 61%
    04:00 +22°C° 0 mm 3 mps 756 mmHg 62%
    05:00 +21°C° 0 mm 3 mps 756 mmHg 63%
    06:00 +21°C° 0 mm 2 mps 756 mmHg 63%
    07:00 +23°C° 0 mm 2 mps 756 mmHg 58%
    08:00 +24°C° 0 mm 2 mps 756 mmHg 54%
    09:00 +25°C° 0 mm 2 mps 756 mmHg 49%
    10:00 +26°C° 0 mm 2 mps 756 mmHg 47%
    11:00 +27°C° 0 mm 3 mps 756 mmHg 44%
    12:00 +28°C° 0 mm 3 mps 756 mmHg 41%
    13:00 +28°C° 0 mm 3 mps 756 mmHg 40%
    14:00 +28°C° 0 mm 3 mps 755 mmHg 38%
    15:00 +28°C° 0 mm 3 mps 755 mmHg 37%
    16:00 +28°C° 0 mm 3 mps 755 mmHg 40%
    17:00 +27°C° 0 mm 3 mps 755 mmHg 42%
    18:00 +26°C° 0 mm 3 mps 755 mmHg 44%
    19:00 +26°C° 0 mm 3 mps 756 mmHg 46%
    20:00 +25°C° 0 mm 3 mps 756 mmHg 47%
    21:00 +25°C° 0 mm 3 mps 756 mmHg 49%
    22:00 +24°C° 0 mm 3 mps 756 mmHg 50%
    23:00 +22°C° 0 mm 3 mps 756 mmHg 51%

    Tomorrow, 24 October, Tuesday

    Time Temperature Precipitation Wind Pressure Humidity
    00:00 +22°C° 0 mm 3 mps 757 mmHg 52%
    01:00 +21°C° 0 mm 3 mps 756 mmHg 52%
    02:00 +21°C° 0 mm 3 mps 756 mmHg 53%
    03:00 +20°C° 0 mm 3 mps 756 mmHg 53%
    04:00 +20°C° 0 mm 3 mps 756 mmHg 55%
    05:00 +20°C° 0 mm 3 mps 757 mmHg 56%
    06:00 +19°C° 0 mm 3 mps 757 mmHg 57%
    07:00 +21°C° 0 mm 3 mps 757 mmHg 52%
    08:00 +22°C° 0 mm 3 mps 757 mmHg 48%
    09:00 +24°C° 0 mm 3 mps 758 mmHg 43%
    10:00 +24°C° 0 mm 3 mps 758 mmHg 40%
    11:00 +25°C° 0 mm 3 mps 757 mmHg 38%
    12:00 +26°C° 0 mm 2 mps 757 mmHg 35%
    13:00 +26°C° 0 mm 2 mps 757 mmHg 35%
    14:00 +27°C° 0 mm 2 mps 757 mmHg 35%
    15:00 +27°C° 0 mm 3 mps 756 mmHg 34%
    16:00 +26°C° 0 mm 2 mps 756 mmHg 37%
    17:00 +25°C° 0 mm 2 mps 757 mmHg 39%
    18:00 +25°C° 0 mm 2 mps 757 mmHg 42%
    19:00 +24°C° 0 mm 2 mps 757 mmHg 44%
    20:00 +24°C° 0 mm 2 mps 757 mmHg 46%
    21:00 +23°C° 0 mm 2 mps 758 mmHg 48%
    22:00 +23°C° 0 mm 2 mps 758 mmHg 50%
    23:00 +21°C° 0 mm 2 mps 758 mmHg 52%

    Day after tomorrow, 25 October, Wednesday

    Time Temperature Precipitation Wind Pressure Humidity
    00:00 +21°C° 0 mm 2 mps 758 mmHg 53%
    01:00 +21°C° 0 mm 2 mps 758 mmHg 54%
    02:00 +20°C° 0 mm 2 mps 758 mmHg 55%
    03:00 +20°C° 0 mm 2 mps 758 mmHg 56%
    04:00 +19°C° 0 mm 2 mps 758 mmHg 57%
    05:00 +19°C° 0 mm 2 mps 758 mmHg 57%
    06:00 +20°C° 0 mm 1 mps 758 mmHg 58%
    07:00 +20°C° 0 mm 2 mps 758 mmHg 54%
    08:00 +21°C° 0 mm 2 mps 759 mmHg 49%
    09:00 +23°C° 0 mm 2 mps 759 mmHg 44%
    10:00 +24°C° 0 mm 2 mps 759 mmHg 42%
    11:00 +25°C° 0 mm 2 mps 759 mmHg 39%
    12:00 +26°C° 0 mm 2 mps 759 mmHg 36%
    13:00 +26°C° 0 mm 2 mps 758 mmHg 34%
    14:00 +27°C° 0 mm 2 mps 758 mmHg 33%
    15:00 +27°C° 0 mm 2 mps 758 mmHg 31%
    16:00 +26°C° 0 mm 2 mps 758 mmHg 34%
    17:00 +25°C° 0 mm 1 mps 758 mmHg 37%
    18:00 +25°C° 0 mm 1 mps 759 mmHg 40%
    19:00 +24°C° 0 mm 1 mps 759 mmHg 41%
    20:00 +24°C° 0 mm 1 mps 760 mmHg 43%
    21:00 +23°C° 0 mm 1 mps 760 mmHg 44%
    22:00 +23°C° 0 mm 1 mps 760 mmHg 45%
    23:00 +22°C° 0 mm 1 mps 760 mmHg 46%

    26 October, Thursday

    Time Temperature Precipitation Wind Pressure Humidity
    00:00 +22°C° 0 mm 1 mps 760 mmHg 46%
    01:00 +21°C° 0 mm 1 mps 760 mmHg 47%
    02:00 +19°C° 0 mm 0 mps 760 mmHg 48%
    03:00 +19°C° 0 mm 0 mps 760 mmHg 49%
    04:00 +18°C° 0 mm 0 mps 760 mmHg 49%
    05:00 +18°C° 0 mm 0 mps 760 mmHg 50%
    06:00 +18°C° 0 mm 0 mps 760 mmHg 51%
    07:00 +21°C° 0 mm 1 mps 761 mmHg 46%
    08:00 +23°C° 0 mm 1 mps 761 mmHg 41%
    09:00 +25°C° 0 mm 1 mps 762 mmHg 37%
    10:00 +25°C° 0 mm 1 mps 761 mmHg 35%
    11:00 +26°C° 0 mm 2 mps 761 mmHg 34%
    12:00 +27°C° 0 mm 2 mps 761 mmHg 32%
    13:00 +27°C° 0 mm 1 mps 760 mmHg 31%
    14:00 +27°C° 0 mm 1 mps 760 mmHg 30%
    15:00 +27°C° 0 mm 1 mps 760 mmHg 30%
    16:00 +27°C° 0 mm 1 mps 760 mmHg 32%
    17:00 +26°C° 0 mm 1 mps 760 mmHg 35%
    18:00 +25°C° 0 mm 1 mps 760 mmHg 38%
    19:00 +24°C° 0 mm 1 mps 760 mmHg 39%
    20:00 +24°C° 0 mm 1 mps 761 mmHg 40%
    21:00 +23°C° 0 mm 1 mps 761 mmHg 41%
    22:00 +23°C° 0 mm 1 mps 761 mmHg 42%
    23:00 +22°C° 0 mm 1 mps 761 mmHg 43%

    27 October, Friday

    Time Temperature Precipitation Wind Pressure Humidity
    00:00 +22°C° 0 mm 1 mps 761 mmHg 44%
    01:00 +21°C° 0 mm 1 mps 760 mmHg 45%
    02:00 +19°C° 0 mm 0 mps 760 mmHg 46%
    03:00 +18°C° 0 mm 0 mps 760 mmHg 47%
    04:00 +18°C° 0 mm 0 mps 760 mmHg 47%
    05:00 +18°C° 0 mm 0 mps 760 mmHg 48%
    06:00 +17°C° 0 mm 0 mps 760 mmHg 48%
    07:00 +19°C° 0 mm 0 mps 760 mmHg 43%
    08:00 +21°C° 0 mm 0 mps 760 mmHg 38%
    09:00 +25°C° 0 mm 1 mps 761 mmHg 33%
    10:00 +26°C° 0 mm 1 mps 760 mmHg 31%
    11:00 +26°C° 0 mm 1 mps 760 mmHg 29%
    12:00 +27°C° 0 mm 1 mps 759 mmHg 27%
    13:00 +28°C° 0 mm 2 mps 759 mmHg 26%
    14:00 +28°C° 0 mm 2 mps 758 mmHg 25%
    15:00 +28°C° 0 mm 2 mps 758 mmHg 24%
    16:00 +27°C° 0 mm 1 mps 758 mmHg 27%
    17:00 +26°C° 0 mm 1 mps 758 mmHg 30%
    18:00 +25°C° 0 mm 1 mps 758 mmHg 33%
    19:00 +25°C° 0 mm 1 mps 758 mmHg 34%
    20:00 +24°C° 0 mm 1 mps 758 mmHg 34%
    21:00 +24°C° 0 mm 1 mps 758 mmHg 35%
    22:00 +23°C° 0 mm 1 mps 757 mmHg 35%
    23:00 +23°C° 0 mm 1 mps 757 mmHg 35%

    28 October, Saturday

    Time Temperature Precipitation Wind Pressure Humidity
    00:00 +23°C° 0 mm 1 mps 757 mmHg 35%
    01:00 +22°C° 0 mm 1 mps 756 mmHg 35%
    02:00 +22°C° 0 mm 1 mps 756 mmHg 36%
    03:00 +22°C° 0 mm 1 mps 755 mmHg 36%
    04:00 +21°C° 0 mm 2 mps 755 mmHg 36%
    05:00 +20°C° 0 mm 2 mps 755 mmHg 36%
    06:00 +20°C° 0 mm 2 mps 755 mmHg 36%
    07:00 +23°C° 0 mm 2 mps 755 mmHg 33%
    08:00 +25°C° 0 mm 2 mps 756 mmHg 29%
    09:00 +26°C° 0 mm 2 mps 756 mmHg 26%
    10:00 +27°C° 0 mm 2 mps 755 mmHg 24%
    11:00 +28°C° 0 mm 2 mps 755 mmHg 22%
    12:00 +29°C° 0 mm 2 mps 755 mmHg 20%
    13:00 +29°C° 0 mm 2 mps 754 mmHg 20%
    14:00 +29°C° 0 mm 2 mps 754 mmHg 20%
    15:00 +30°C° 0 mm 2 mps 754 mmHg 20%
    16:00 +28°C° 0 mm 2 mps 754 mmHg 23%
    17:00 +27°C° 0 mm 2 mps 754 mmHg 27%
    18:00 +26°C° 0 mm 2 mps 754 mmHg 30%
    19:00 +25°C° 0 mm 2 mps 755 mmHg 33%
    20:00 +25°C° 0 mm 2 mps 755 mmHg 36%
    21:00 +24°C° 0 mm 2 mps 755 mmHg 39%
    22:00 +24°C° 0 mm 2 mps 755 mmHg 41%
    23:00 +22°C° 0 mm 3 mps 755 mmHg 44%

    29 October, Sunday

    Time Temperature Precipitation Wind Pressure Humidity
    00:00 +22°C° 0 mm 3 mps 755 mmHg 47%
    01:00 +21°C° 0 mm 3 mps 755 mmHg 48%
    02:00 +21°C° 0 mm 4 mps 755 mmHg 50%
    03:00 +21°C° 0 mm 4 mps 755 mmHg 52%
    04:00 +20°C° 0 mm 4 mps 755 mmHg 53%
    05:00 +20°C° 0 mm 4 mps 755 mmHg 54%
    06:00 +19°C° 0 mm 4 mps 755 mmHg 55%
    07:00 +20°C° 0 mm 4 mps 756 mmHg 49%
    08:00 +21°C° 0 mm 4 mps 756 mmHg 43%
    09:00 +23°C° 0 mm 4 mps 756 mmHg 37%
    10:00 +23°C° 0 mm 4 mps 756 mmHg 35%
    11:00 +25°C° 0 mm 3 mps 756 mmHg 33%
    12:00 +26°C° 0 mm 3 mps 756 mmHg 30%
    13:00 +26°C° 0 mm 3 mps 755 mmHg 30%
    14:00 +26°C° 0 mm 2 mps 755 mmHg 29%
    15:00 +26°C° 0 mm 2 mps 755 mmHg 29%
    16:00 +25°C° 0 mm 2 mps 755 mmHg 31%
    17:00 +25°C° 0 mm 2 mps 755 mmHg 34%
    18:00 +24°C° 0 mm 2 mps 756 mmHg 36%
    19:00 +23°C° 0 mm 1 mps 756 mmHg 38%
    20:00 +23°C° 0 mm 1 mps 756 mmHg 40%
    21:00 +22°C° 0 mm 1 mps 756 mmHg 42%
    22:00 +22°C° 0 mm 1 mps 756 mmHg 43%
    23:00 +21°C° 0 mm 1 mps 756 mmHg 44%
    Show more